Location: Newark
(45.6439°N, 0.5436°E)
Time: 11:19:14
(UTC+00:00)

N. Korean satellite - Pass Details

Date: 26 November 2019
Orbit: 456 x 506 km, 97.2° (Epoch: 06 December)

Event Time Altitude Azimuth Distance (km) Brightness Sun altitude
Rises 06:16:05 0° 7° (N) 2,604 10.1 -9.6°
Reaches altitude 10° 06:18:13 10° 2° (N) 1,709 9.1 -9.2°
Maximum altitude 06:21:46 49° 287° (WNW) 647 6.8 -8.7°
Drops below altitude 10° 06:25:15 10° 212° (SSW) 1,668 9.2 -8.1°
Sets 06:27:19 0° 207° (SSW) 2,535 10.2 -7.8°
